Vertical_Velocity
3 2 -2 -2 -1 0 -1 -1 -0 -0 -1 -1 0 -1 -0 -0 -2 -0 1 -1 -2 -2 -0 1 -2 -1 -0 -3 -2 6 2 0 2 0 -1 -1 -1 -2 2 3 4 7 7
4 -3 3 -1 -1 1 -0 -0 -1 -1 1 -1 1 0 -0 -1 -1 -1 -1 1 1 -1 -1 -0 4 -1 1 -1 -2 -2 -0 0 -1 0 2 1 -1 -0 -2 -3 -2 -3 -1
4 1 2 1 -1 -1 -0 2 2 4 0 1 1 -1 1 0 -1 -1 -1 -1 -1 0 -0 -1 3 2 -1 -2 -1 -2 -1 -0 0 0 -0 -2 1 -1 -0 -1 -1 -1 -1
-1 4 6 1 -1 1 2 4 2 1 -2 -0 2 0 2 1 1 -0 -1 0 0 4 9 4 0 -2 -2 -1 -2 -2 -1 -0 1 -1 3 4 -1 2 0 -1 -0 -1 -0
-1 -3 -4 4 3 -1 -1 -4 -2 3 2 1 2 0 -2 1 -1 -1 -2 0 -0 1 1 -0 0 1 -1 0 -3 -2 -2 -2 0 0 2 2 -5 0 -0 1 -0 -0 -1
1 0 -2 1 2 3 2 1 0 -1 -2 -2 -3 -1 -0 -1 0 -3 0 0 0 -3 1 1 -1 -1 0 1 -1 -1 -3 0 -2 -3 3 2 -4 -1 0 0 0 -2 -1
-1 0 0 1 2 -0 1 3 4 2 -1 -1 -2 -2 -1 -0 1 0 -1 -3 -0 2 0 3 0 0 -0 -0 1 1 2 -1 -2 -3 -3 0 1 0 -3 -4 -1 0 -1
-3 -0 1 2 1 2 0 1 0 1 3 2 1 -1 -2 -1 -0 -1 -2 -1 -1 -1 1 -1 -1 -1 -0 -2 -2 -1 -1 1 1 -2 2 -4 -3 -2 1 1 -1 -2 -1
-2 -3 -2 -1 -1 0 3 1 -0 1 -0 0 6 3 3 1 -1 -2 -3 -3 -1 -0 -1 2 -2 -1 -2 -0 1 -1 -2 -2 -0 -1 2 -3 -1 -1 -3 -2 1 0 -2
-3 -2 -1 -0 0 -1 0 1 3 2 1 -1 -1 1 -2 0 1 2 2 -0 -2 -3 -2 -0 2 -1 -0 -1 -1 -1 1 1 -1 -4 1 3 2 -0 -2 -3 -3 -3 1
0 -3 -2 -2 1 -3 -2 0 0 -0 0 1 0 3 2 -0 -2 0 -1 -0 -0 1 -2 1 -2 -1 -0 -1 -1 -0 -2 -2 2 1 -1 -4 -2 0 3 2 -2 -2 -2
-2 -0 0 -3 -3 -0 -2 -2 -3 -0 0 1 2 1 -0 -1 2 -4 -3 -1 0 -2 1 3 0 -0 -2 -2 -1 1 -1 -0 -2 -1 2 -5 -2 -1 -1 -0 1 1 -1
-1 -2 0 -1 -1 -1 0 -2 -2 1 1 -1 -1 -2 -2 1 1 -1 3 -4 -5 -1 -2 -3 1 1 -1 -2 -3 -1 -0 1 0 -4 3 -3 -2 -1 -2 1 1 1 0
-2 -4 -2 1 0 -1 -1 1 -1 -2 -0 -2 1 2 2 1 -2 7 11 6 -4 -4 0 -3 -4 -2 1 2 1 -4 1 1 0 -2 6 -1 -2 -1 -2 -4 -1 -1 1
2 1 2 -2 -3 1 -0 -2 2 -1 -0 1 -3 -1 -1 -0 -4 -1 1 7 10 7 -1 0 -3 -2 -2 -1 -3 -1 3 -1 -1 -1 3 1 -0 0 1 -1 -3 -1 1
-3 -3 -1 1 -1 -5 0 -1 -3 2 1 2 4 -2 -2 1 -0 -2 1 4 -0 4 7 5 5 5 3 6 3 8 0 -2 3 -2 2 -1 -4 -1 -1 -3 -1 -1 1
2 3 1 0 2 2 -3 -1 0 -1 -1 1 3 2 5 -3 -2 -1 -0 -3 -1 2 -1 3 0 2 13 2 -2 1 18 5 2 -4 5 -3 7 -4 1 -4 -2 -0 -2
0 1 -2 -0 1 2 -1 -3 -1 -1 2 -1 2 2 -6 -1 0 1 -0 -2 0 0 -0 0 -1 2 1 6 -0 4 1 8 4 -5 -1 -1 -8 1 -0 2 -7 -4 -0
-4 -5 -4 -3 -1 0 0 0 -1 -2 -5 -0 0 6 -5 -1 6 -4 -4 -2 2 1 -0 -3 1 -0 -3 -4 -1 -2 4 9 7 4 2 2 1 -3 -2 5 4 3 -6
-2 -1 -2 -1 -3 -2 2 -1 1 -1 2 1 -0 1 6 0 5 -1 -3 -4 -1 1 0 -2 -4 2 1 -0 -3 -2 -4 2 5 4 3 6 -4 4 0 -6 3 -3 -1
-6 -7 -6 -5 -2 -1 3 -1 2 3 -3 1 3 6 13 -1 -2 3 2 3 0 -3 0 3 1 -2 -9 0 3 -2 -8 1 -2 -1 -3 1 5 6 -8 3 -1 0 1
-0 -2 -3 -5 -6 -2 0 4 3 9 2 2 13 7 1 -0 3 4 1 -2 1 -0 -0 1 3 1 -1 3 -5 6 -1 -8 -7 -7 4 -7 -2 4 2 -2 2 -4 -1
-1 -3 -6 -5 -2 -2 -6 -2 1 5 1 7 14 18 30 2 -6 0 3 -1 -3 -2 -3 2 1 4 0 -2 4 6 6 -7 0 -9 -8 -5 -3 -6 -2 1 4 1 3
-3 -1 -0 -4 -2 1 -1 -2 0 5 12 8 4 11 1 -6 -4 -1 0 1 2 -3 -3 1 4 2 15 0 4 6 4 4 2 -4 -3 -7 1 1 0 1 2 5 2
-1 2 -5 -3 -1 -3 -4 -4 -4 5 10 7 7 11 1 -2 -12 2 2 -4 1 -2 -1 -0 -2 1 5 8 4 6 6 -1 4 12 -4 -4 -1 -4 5 -4 -5 3 0
0 -2 -1 -1 -4 1 6 -4 2 10 -4 -13 -3 -16 3 3 5 2 -2 -1 2 5 -5 -9 -3 4 10 -2 6 5 2 -1 4 4 15 -2 2 -10 2 6 0 -2 -1
Height
1521 1520 1520 1521 1521 1522 1522 1524 1526 1527 1528 1529 1529 1531 1531 1532 1533 1534 1534 1535 1535 1536 1537 1537 1538 1539 1539 1540 1541 1541 1541 1542 1543 1543 1544 1544 1544 1545 1545 1544 1545 1545 1545
1521 1519 1520 1520 1522 1523 1523 1525 1526 1527 1529 1530 1530 1531 1532 1532 1533 1534 1535 1535 1536 1537 1538 1539 1539 1540 1541 1541 1542 1542 1542 1543 1543 1544 1545 1545 1545 1546 1546 1546 1547 1546 1546
1520 1519 1520 1520 1521 1523 1524 1525 1526 1528 1529 1530 1531 1532 1533 1533 1533 1534 1535 1535 1536 1537 1538 1540 1541 1541 1541 1542 1543 1543 1544 1544 1545 1545 1545 1545 1545 1546 1546 1546 1547 1547 1547
1518 1519 1519 1520 1521 1523 1524 1525 1527 1528 1529 1531 1531 1532 1533 1533 1534 1534 1535 1536 1536 1537 1538 1540 1541 1541 1542 1542 1543 1544 1544 1545 1546 1546 1547 1547 1546 1546 1546 1546 1547 1547 1547
1518 1518 1518 1520 1521 1522 1523 1525 1527 1528 1529 1530 1531 1532 1533 1533 1534 1534 1535 1536 1537 1538 1539 1539 1540 1541 1541 1542 1543 1544 1545 1545 1546 1547 1548 1548 1546 1546 1546 1546 1546 1546 1547
1518 1518 1519 1519 1520 1521 1522 1524 1525 1526 1528 1529 1530 1531 1532 1532 1533 1534 1534 1535 1536 1538 1539 1539 1539 1540 1540 1541 1542 1543 1544 1545 1546 1547 1548 1548 1546 1547 1547 1546 1546 1546 1547
1517 1517 1518 1519 1520 1520 1521 1522 1523 1525 1526 1527 1528 1530 1531 1532 1533 1533 1533 1535 1536 1537 1538 1539 1540 1540 1540 1541 1542 1543 1543 1544 1546 1546 1547 1548 1547 1547 1546 1546 1546 1546 1546
1516 1517 1518 1518 1519 1520 1521 1522 1523 1524 1525 1525 1526 1527 1529 1530 1531 1532 1533 1533 1534 1536 1537 1538 1539 1539 1540 1540 1541 1542 1543 1543 1545 1545 1547 1546 1547 1547 1546 1546 1546 1546 1546
1517 1517 1517 1518 1517 1518 1520 1520 1521 1522 1523 1524 1525 1526 1527 1528 1529 1530 1530 1532 1533 1534 1535 1537 1537 1538 1539 1539 1540 1540 1541 1542 1543 1544 1545 1545 1545 1546 1546 1546 1545 1545 1545
1517 1516 1517 1517 1517 1517 1518 1519 1519 1520 1521 1522 1523 1524 1525 1526 1526 1527 1528 1529 1530 1532 1533 1534 1535 1536 1537 1537 1538 1539 1540 1540 1541 1542 1544 1544 1544 1544 1544 1545 1545 1545 1545
1516 1515 1515 1515 1516 1516 1517 1517 1517 1518 1519 1520 1521 1522 1522 1523 1523 1524 1525 1527 1528 1529 1530 1532 1533 1534 1535 1535 1536 1536 1537 1539 1539 1540 1541 1541 1542 1543 1543 1543 1543 1543 1544
1512 1513 1513 1513 1514 1514 1514 1515 1515 1515 1517 1518 1518 1519 1520 1520 1521 1521 1522 1524 1525 1527 1528 1528 1530 1531 1532 1532 1533 1533 1534 1536 1537 1538 1539 1539 1540 1540 1541 1542 1542 1542 1542
1510 1509 1509 1509 1510 1510 1511 1512 1513 1513 1514 1515 1515 1516 1516 1518 1518 1519 1519 1520 1521 1523 1524 1526 1526 1527 1527 1528 1529 1530 1532 1533 1534 1535 1536 1536 1537 1538 1538 1539 1540 1540 1540
1507 1507 1506 1506 1506 1506 1506 1508 1508 1510 1511 1511 1512 1513 1513 1514 1515 1517 1518 1517 1516 1518 1520 1521 1523 1524 1525 1525 1526 1526 1528 1529 1530 1532 1533 1534 1534 1535 1536 1537 1537 1538 1538
1505 1504 1504 1503 1502 1502 1502 1502 1504 1505 1507 1508 1508 1509 1510 1511 1512 1514 1514 1514 1514 1515 1516 1518 1519 1521 1522 1523 1523 1524 1525 1525 1526 1528 1529 1530 1531 1531 1532 1533 1534 1535 1535
1502 1502 1501 1501 1500 1498 1498 1498 1499 1500 1502 1504 1505 1505 1506 1508 1508 1510 1512 1513 1513 1514 1514 1515 1517 1518 1519 1519 1520 1521 1522 1523 1524 1524 1526 1526 1526 1527 1527 1529 1530 1531 1532
1501 1499 1497 1496 1496 1495 1493 1494 1494 1494 1496 1498 1501 1502 1503 1504 1505 1506 1507 1509 1510 1511 1512 1513 1514 1514 1515 1515 1516 1517 1517 1518 1518 1519 1521 1521 1522 1521 1523 1523 1525 1526 1528
1498 1496 1494 1493 1492 1491 1489 1489 1490 1489 1490 1492 1495 1497 1499 1501 1502 1503 1504 1505 1506 1507 1507 1508 1509 1509 1511 1510 1510 1512 1512 1511 1511 1513 1515 1516 1516 1516 1516 1516 1518 1520 1522
1496 1493 1490 1488 1487 1486 1485 1484 1484 1485 1486 1486 1488 1491 1494 1497 1498 1499 1500 1502 1502 1503 1503 1503 1503 1504 1504 1505 1504 1504 1506 1506 1506 1507 1507 1508 1510 1509 1509 1510 1512 1512 1515
1493 1490 1487 1485 1482 1481 1481 1479 1479 1480 1480 1482 1483 1485 1488 1490 1491 1493 1495 1497 1498 1498 1498 1498 1497 1498 1498 1498 1498 1496 1496 1498 1498 1498 1499 1501 1502 1502 1503 1503 1504 1505 1508
1490 1487 1484 1481 1479 1476 1476 1475 1475 1475 1477 1477 1479 1481 1481 1484 1486 1487 1490 1491 1492 1493 1494 1494 1493 1491 1490 1492 1491 1489 1487 1487 1487 1488 1490 1491 1492 1494 1494 1496 1497 1498 1500
1488 1485 1482 1479 1476 1474 1471 1471 1471 1472 1473 1474 1476 1476 1477 1478 1480 1482 1483 1485 1487 1487 1487 1487 1488 1486 1484 1485 1484 1485 1481 1479 1477 1478 1479 1481 1482 1485 1485 1486 1487 1489 1492
1486 1483 1480 1478 1473 1471 1469 1468 1468 1469 1470 1471 1473 1473 1473 1473 1475 1478 1478 1479 1480 1480 1480 1480 1481 1480 1477 1477 1478 1478 1476 1470 1470 1469 1468 1469 1471 1472 1475 1477 1478 1479 1483
1485 1482 1479 1477 1472 1469 1467 1468 1467 1467 1466 1468 1469 1469 1469 1471 1470 1475 1475 1473 1473 1473 1473 1472 1472 1471 1471 1467 1468 1467 1466 1466 1464 1461 1460 1458 1458 1460 1461 1463 1465 1469 1473
1484 1480 1479 1477 1473 1469 1467 1466 1466 1466 1465 1464 1466 1465 1466 1467 1467 1472 1467 1469 1468 1466 1465 1464 1462 1460 1459 1459 1457 1458 1457 1456 1456 1455 1450 1450 1451 1450 1452 1452 1455 1457 1463
1484 1481 1478 1476 1474 1471 1468 1467 1467 1466 1464 1463 1463 1467 1465 1466 1465 1463 1465 1466 1464 1460 1461 1457 1452 1450 1449 1448 1447 1447 1447 1446 1445 1446 1441 1441 1442 1440 1442 1444 1446 1448 1452